Weather in Shekhupura

Pakistan     31°42′27″N   73°59′17″E
temp.,
°C
wind,
m/s
gust,
m/s
humid.,
%
clouds,
%
prec.,
mm/h
press.,
hPa
HPBL,
m
18 may, tue
tue1823:00+33wnw3322100 0.0 100431
02:00+30nne35240 0.0 100369
05:00+29nne332823 0.0 100340
08:00+33ese22220 0.0 1005454
11:00+39e11155 0.0 10042060
14:00+41nnw23123 0.0 10014398
17:00+41nne34116 0.0 9984621
20:00+37w571791 0.0 1000335
19 may, wed
wed1923:00+31sw71138100 0.0 1003491
02:00+31sw243697 0.0 1003422
05:00+29ssw113968 0.0 100215
08:00+32s3332100 0.0 1004911
11:00+36s332498 0.0 10022701
14:00+36sse4423100 0.2 10002295
17:00+36se432497 0.7 9992327
20:00+28se4550100 0.6 1004537
20 may, thu
thu2023:00+28se5851100 0.9 1002942
02:00+26ese346364 0.0 1002416
05:00+25ese346834 0.0 1002439
08:00+27ese2255100 0.0 1004787
11:00+32se224042 0.0 10041701
14:00+35se343177 0.0 10012859
17:00+32sse563668 0.4 1000730
20:00+31ese710424 0.4 1001459
21 may, fri
fri2123:00+28se610490 1.6 1003430
02:00+26se48510 0.2 1002361
05:00+23e7126788 2.1 1003469
08:00+25e7116251 3.8 1006622
11:00+27ene785495 9.4 10071026
14:00+31e67380 0.1 10051251
17:00+32e55330 0.1 10031240
20:00+29ne35400 0.1 100394
22 may, sat
sat2223:00+27n23490 0.1 100352
02:00+26n22490 0.0 100232
05:00+25n35530 0.0 100391
08:00+30nne56364 0.0 1003379
11:00+35ene222492 0.0 10041302
14:00+38ne21192 0.0 10011943
17:00+38ne21173 0.0 9991943
20:00+28wnw121746100 0.2 1002584